SQ9CIE-4 Weather Reports


time (UTC)temp
F
wind
direction
speed
knots
gust
knots
rain 1hr
in
rain 24hr
in
rain mn
in
humidity
%
barometer
mb
20260506171059 68 247 0.0 0.0 0.00 0.00 0.00 47 1004.9
20260506170559 70 246 0.0 0.0 0.00 0.00 0.00 46 1005.0
20260506170059 70 247 0.0 1.7 0.00 0.00 0.00 45 1004.7
20260506165559 70 247 1.7 3.5 0.00 0.00 0.00 45 1004.7
20260506165059 70 248 0.9 4.3 0.00 0.00 0.00 44 1004.7
20260506164559 70 243 1.7 6.1 0.00 0.00 0.00 44 1004.8
20260506164059 70 236 5.2 9.6 0.00 0.00 0.00 43 1004.8
20260506163559 70 246 7.8 7.8 0.00 0.00 0.00 44 1004.7
20260506163059 72 272 7.8 11.3 0.00 0.00 0.00 44 1004.6
20260506162559 72 264 4.3 7.8 0.00 0.00 0.00 44 1004.6
20260506162059 72 244 5.2 11.3 0.00 0.00 0.00 44 1004.6
20260506161559 72 274 4.3 9.6 0.00 0.00 0.00 46 1004.7
20260506161059 72 295 7.0 13.0 0.00 0.00 0.00 46 1004.6
20260506160559 73 246 8.7 11.3 0.00 0.00 0.00 45 1004.7
20260506160059 73 268 9.6 13.0 0.00 0.00 0.00 43 1004.6
20260506155559 73 234 3.5 9.6 0.00 0.00 0.00 43 1004.4
20260506155059 73 251 7.8 9.6 0.00 0.00 0.00 43 1004.5
20260506154559 73 253 5.2 13.0 0.00 0.00 0.00 43 1004.6
20260506154059 73 230 3.5 7.8 0.00 0.00 0.00 43 1004.6
20260506153559 73 237 9.6 13.0 0.00 0.00 0.00 41 1004.7
20260506153059 73 244 7.0 11.3 0.00 0.00 0.00 41 1004.5
20260506152559 75 209 8.7 13.0 0.00 0.00 0.00 42 1004.5
20260506152059 75 189 10.4 13.0 0.00 0.00 0.00 40 1004.4
20260506151559 75 180 7.8 9.6 0.00 0.00 0.00 39 1004.3
20260506151059 75 294 3.5 9.6 0.00 0.00 0.00 38 1004.5
20260506150559 75 244 7.8 14.8 0.00 0.00 0.00 41 1004.5
20260506150059 75 250 9.6 17.4 0.00 0.00 0.00 39 1004.4
20260506145559 75 232 5.2 7.8 0.00 0.00 0.00 39 1004.4
20260506145059 75 179 5.2 9.6 0.00 0.00 0.00 43 1004.6
20260506144559 75 233 2.6 9.6 0.00 0.00 0.00 43 1004.8
20260506144059 75 239 7.0 9.6 0.00 0.00 0.00 41 1004.9
20260506143559 75 260 8.7 13.0 0.00 0.00 0.00 40 1005.0
20260506143059 75 257 13.0 17.4 0.00 0.00 0.00 40 1004.9
20260506142559 75 243 19.1 26.1 0.00 0.00 0.00 40 1004.9
20260506142059 75 204 9.6 17.4 0.00 0.00 0.00 39 1004.9
20260506141559 75 240 12.2 20.9 0.00 0.00 0.00 40 1004.9
20260506141059 75 242 12.2 22.6 0.00 0.00 0.00 38 1004.9
20260506140559 75 218 7.0 19.1 0.00 0.00 0.00 40 1004.9
20260506140059 75 246 18.2 22.6 0.00 0.00 0.00 38 1004.9
20260506135559 75 218 4.3 14.8 0.00 0.00 0.00 41 1004.8
20260506135059 75 243 10.4 14.8 0.00 0.00 0.00 40 1004.7
20260506134559 75 229 10.4 15.6 0.00 0.00 0.00 41 1004.9
20260506134059 75 209 7.0 15.6 0.00 0.00 0.00 43 1004.9
20260506133559 73 194 9.6 14.8 0.00 0.00 0.00 44 1005.1
20260506133059 75 273 12.2 14.8 0.00 0.00 0.00 42 1005.0
20260506132559 75 252 9.6 15.6 0.00 0.00 0.00 42 1004.7
20260506132059 75 252 14.8 17.4 0.00 0.00 0.00 42 1005.1
20260506131559 75 206 5.2 11.3 0.00 0.00 0.00 42 1005.1
20260506131059 73 246 13.0 22.6 0.00 0.00 0.00 44 1005.3
20260506130559 73 268 5.2 14.8 0.00 0.00 0.00 44 1005.4
20260506130059 73 265 9.6 19.1 0.00 0.00 0.00 44 1005.4
20260506125559 73 184 7.8 15.6 0.00 0.00 0.00 43 1005.6
20260506125059 75 245 10.4 17.4 0.00 0.00 0.00 42 1005.2
20260506124559 73 252 8.7 15.6 0.00 0.00 0.00 43 1005.4
20260506124059 73 248 13.9 26.1 0.00 0.00 0.00 43 1005.5
20260506123559 73 273 9.6 24.3 0.00 0.00 0.00 44 1005.3
20260506123059 73 170 10.4 24.3 0.00 0.00 0.00 44 1005.5
20260506122559 73 202 13.9 19.1 0.00 0.00 0.00 44 1005.3
20260506122059 73 230 11.3 14.8 0.00 0.00 0.00 43 1005.3
20260506121559 73 242 11.3 19.1 0.00 0.00 0.00 43 1005.5
20260506121059 73 224 9.6 24.3 0.00 0.00 0.00 42 1005.5
20260506120559 73 180 16.5 28.7 0.00 0.00 0.00 43 1005.3
20260506120059 73 208 20.0 26.1 0.00 0.00 0.00 43 1005.3
20260506115559 73 211 22.6 26.9 0.00 0.00 0.00 43 1005.5
20260506115059 73 252 13.9 24.3 0.00 0.00 0.00 44 1005.5
20260506114559 73 240 9.6 14.8 0.00 0.00 0.00 45 1005.4
20260506114059 72 223 12.2 22.6 0.00 0.00 0.00 43 1005.4
20260506113559 72 217 16.5 20.9 0.00 0.00 0.00 46 1005.5
20260506113100 72 225 13.0 26.1 0.00 0.00 0.00 46 1005.6
20260506112559 72 234 10.4 19.1 0.00 0.00 0.00 45 1005.8
20260506112059 72 205 4.3 14.8 0.00 0.00 0.00 48 1005.7
20260506111559 72 221 8.7 14.8 0.00 0.00 0.00 48 1005.7
20260506111059 73 250 7.8 20.9 0.00 0.00 0.00 46 1005.8
20260506110559 72 251 7.8 20.9 0.00 0.00 0.00 47 1005.7
20260506110059 72 270 7.0 13.0 0.00 0.00 0.00 50 1005.7
20260506105559 72 181 10.4 15.6 0.00 0.00 0.00 49 1005.8
20260506105059 72 183 7.8 26.1 0.00 0.00 0.00 50 1005.8
20260506104559 72 252 13.0 26.1 0.00 0.00 0.00 50 1006.2
20260506104059 70 244 7.8 20.9 0.00 0.00 0.00 50 1006.1
20260506103559 70 247 18.2 22.6 0.00 0.00 0.00 49 1006.0
20260506103059 72 209 9.6 19.1 0.00 0.00 0.00 48 1005.9
20260506102559 72 243 7.8 15.6 0.00 0.00 0.00 49 1005.9
20260506102059 72 185 13.0 26.9 0.00 0.00 0.00 48 1005.7
20260506101559 72 224 7.8 19.1 0.00 0.00 0.00 49 1005.8
20260506101059 72 204 13.0 15.6 0.00 0.00 0.00 48 1005.6
20260506100559 72 238 13.9 20.9 0.00 0.00 0.00 49 1005.6
20260506100059 70 191 9.6 20.9 0.00 0.00 0.00 51 1005.7
20260506095559 72 209 9.6 26.1 0.00 0.00 0.00 49 1005.8
20260506095059 70 242 11.3 20.9 0.00 0.00 0.00 51 1005.6
20260506094559 72 202 7.8 15.6 0.00 0.00 0.00 50 1005.7
20260506094059 70 227 12.2 15.6 0.00 0.00 0.00 52 1005.7
20260506093559 70 206 16.5 19.1 0.00 0.00 0.00 51 1005.7
20260506093059 70 209 10.4 17.4 0.00 0.00 0.00 53 1005.7
20260506092559 70 238 12.2 22.6 0.00 0.00 0.00 53 1005.8
20260506092059 68 188 10.4 15.6 0.00 0.00 0.00 54 1005.9
20260506091558 68 284 10.4 26.1 0.00 0.00 0.00 53 1005.8
20260506091059 68 216 21.7 26.1 0.00 0.00 0.00 53 1005.8
20260506090559 68 216 13.9 22.6 0.00 0.00 0.00 55 1005.9
20260506090059 68 275 10.4 19.1 0.00 0.00 0.00 54 1005.7
20260506085559 68 216 14.8 20.9 0.00 0.00 0.00 55 1005.7
20260506085058 68 256 10.4 26.1 0.00 0.00 0.00 55 1005.7
20260506084558 68 269 7.0 11.3 0.00 0.00 0.00 57 1005.8
20260506084059 68 253 14.8 19.1 0.00 0.00 0.00 55 1005.7
20260506083558 66 202 17.4 24.3 0.00 0.00 0.00 56 1005.7
20260506083058 66 190 13.0 15.6 0.00 0.00 0.00 57 1005.9
20260506082558 66 196 13.0 20.9 0.00 0.00 0.00 56 1005.6
20260506082058 66 260 7.8 19.1 0.00 0.00 0.00 57 1005.9
20260506081558 66 257 10.4 15.6 0.00 0.00 0.00 58 1006.1
20260506081058 64 270 16.5 26.1 0.00 0.00 0.00 58 1006.0
20260506080558 64 224 11.3 20.9 0.00 0.00 0.00 58 1005.9
20260506073058 64 250 13.0 22.6 0.00 0.00 0.00 59 1005.7
20260506072558 64 171 11.3 20.9 0.00 0.00 0.00 59 1005.7
20260506072058 64 255 14.8 26.1 0.00 0.00 0.00 59 1005.7
20260506071558 64 230 16.5 20.9 0.00 0.00 0.00 60 1005.7
20260506071058 64 255 13.9 24.3 0.00 0.00 0.00 60 1005.6
20260506070558 64 135 16.5 20.9 0.00 0.00 0.00 60 1005.8
20260506062059 63 222 7.8 17.4 0.00 0.00 0.00 61 1005.6
20260506061558 63 224 8.7 13.0 0.00 0.00 0.00 61 1005.6
20260506061058 63 207 11.3 19.1 0.00 0.00 0.00 61 1005.5
20260506060559 63 221 7.8 15.6 0.00 0.00 0.00 61 1005.5
20260506051058 61 192 12.2 13.0 0.00 0.00 0.00 63 1005.8
20260506050559 61 220 12.2 15.6 0.00 0.00 0.00 63 1005.7
20260506045058 59 229 8.7 17.4 0.00 0.00 0.00 64 1005.8
20260506044558 61 238 8.7 14.8 0.00 0.00 0.00 63 1005.7
20260506044058 61 181 12.2 14.8 0.00 0.00 0.00 62 1005.7
20260506043558 61 211 12.2 14.8 0.00 0.00 0.00 62 1005.7
20260506043058 59 233 7.0 9.6 0.00 0.00 0.00 62 1005.8
20260506042558 59 190 5.2 11.3 0.00 0.00 0.00 63 1005.8
20260506042058 59 225 1.7 9.6 0.00 0.00 0.00 64 1005.7
20260506041558 59 239 5.2 6.1 0.00 0.00 0.00 64 1005.8
20260506041058 59 218 6.1 11.3 0.00 0.00 0.00 64 1005.8
20260506040558 57 218 5.2 13.0 0.00 0.00 0.00 65 1005.8
20260506040058 57 199 5.2 9.6 0.00 0.00 0.00 65 1005.9
20260506035558 57 229 1.7 7.8 0.00 0.00 0.00 65 1005.7
20260506035058 57 283 4.3 7.8 0.00 0.00 0.00 64 1005.6
20260506034558 57 210 3.5 7.8 0.00 0.00 0.00 64 1005.8
20260506034058 57 228 4.3 9.6 0.00 0.00 0.00 65 1005.6
20260506033558 57 229 5.2 9.6 0.00 0.00 0.00 65 1005.6
20260506033058 57 211 7.0 11.3 0.00 0.00 0.00 65 1005.8
20260506032558 55 225 4.3 7.8 0.00 0.00 0.00 65 1005.8
20260506032058 57 205 6.1 7.8 0.00 0.00 0.00 64 1005.8
20260506031558 57 203 4.3 6.1 0.00 0.00 0.00 65 1005.8
20260506031058 57 215 4.3 9.6 0.00 0.00 0.00 64 1005.9
20260506030558 57 194 7.0 9.6 0.00 0.00 0.00 63 1005.7
20260506030058 55 215 1.7 3.5 0.00 0.00 0.00 62 1005.6
20260506025558 57 215 0.0 0.0 0.00 0.00 0.00 61 1005.7
20260506025058 57 222 0.9 3.5 0.00 0.00 0.00 60 1005.8
20260506024558 57 222 0.0 3.5 0.00 0.00 0.00 59 1005.6
20260506024058 57 252 0.0 0.0 0.00 0.00 0.00 58 1005.6
20260506023558 57 253 1.7 4.3 0.00 0.00 0.00 57 1005.7
20260506023058 57 221 2.6 3.5 0.00 0.00 0.00 58 1005.7
20260506022558 57 129 0.0 0.0 0.00 0.00 0.00 57 1005.6
20260506022058 57 129 0.0 0.0 0.00 0.00 0.00 57 1005.4
20260506021558 57 129 0.0 0.0 0.00 0.00 0.00 57 1005.7
20260506021058 57 129 0.0 0.0 0.00 0.00 0.00 58 1005.7
20260506020558 57 129 0.0 0.0 0.00 0.00 0.00 58 1005.8
20260506020058 57 129 0.0 0.0 0.00 0.00 0.00 58 1005.8
20260506015558 57 129 0.0 0.0 0.00 0.00 0.00 57 1005.6
20260506015059 57 129 0.9 1.7 0.00 0.00 0.00 57 1005.6
20260506014558 57 129 0.0 0.0 0.00 0.00 0.00 57 1005.8
20260506014058 57 129 0.0 0.0 0.00 0.00 0.00 58 1005.7
20260506013558 57 129 0.0 0.0 0.00 0.00 0.00 58 1005.9
20260506013058 57 129 0.0 0.0 0.00 0.00 0.00 57 1005.9
20260506012558 57 129 0.0 0.0 0.00 0.00 0.00 57 1006.0
20260506012058 57 129 0.0 0.0 0.00 0.00 0.00 56 1005.8
20260506011558 57 129 0.0 0.0 0.00 0.00 0.00 55 1005.7
20260506011058 57 129 0.0 0.0 0.00 0.00 0.00 54 1005.7
20260506010558 57 129 0.0 0.0 0.00 0.00 0.00 54 1005.9
20260506010058 57 129 0.0 0.0 0.00 0.00 0.00 54 1005.9
20260506005558 59 129 0.0 0.0 0.00 0.00 0.00 53 1005.8
20260506005058 59 129 0.0 0.0 0.00 0.00 0.00 53 1005.7
20260506004558 59 129 0.0 1.7 0.00 0.00 0.00 53 1005.8
20260506004058 59 129 0.0 0.0 0.00 0.00 0.00 53 1006.0
20260506003558 59 129 0.0 1.7 0.00 0.00 0.00 53 1005.8
20260506003058 59 129 3.5 3.5 0.00 0.00 0.00 54 1005.6
20260506002558 59 129 1.7 3.5 0.00 0.00 0.00 53 1005.8
20260506002058 59 129 1.7 1.7 0.00 0.00 0.00 53 1005.7
20260506001558 59 129 1.7 1.7 0.00 0.00 0.00 54 1005.9
20260506001058 59 129 1.7 1.7 0.00 0.00 0.00 53 1005.8
20260506000558 59 129 0.9 3.5 0.00 0.00 0.00 53 1005.7
20260506000058 59 129 0.0 1.7 0.00 0.00 0.00 54 1005.8
20260505235558 59 129 0.0 1.7 0.00 0.00 0.00 54 1006.0
20260505235058 61 129 1.7 3.5 0.00 0.00 0.00 53 1006.0
20260505234558 61 129 2.6 3.5 0.00 0.00 0.00 53 1005.9
20260505234058 61 129 3.5 3.5 0.00 0.00 0.00 52 1005.8
20260505233558 61 129 2.6 3.5 0.00 0.00 0.00 52 1005.9
20260505233058 61 129 1.7 3.5 0.00 0.00 0.00 52 1006.0
20260505232558 61 129 2.6 3.5 0.00 0.00 0.00 51 1006.0
20260505232058 61 129 0.0 1.7 0.00 0.00 0.00 51 1006.0
20260505231558 61 129 1.7 3.5 0.00 0.00 0.00 52 1006.2
20260505231058 61 129 1.7 4.3 0.00 0.00 0.00 51 1006.1
20260505230558 61 129 3.5 3.5 0.00 0.00 0.00 51 1006.1
20260505230058 61 171 3.5 3.5 0.00 0.00 0.00 50 1006.2
20260505225558 61 171 1.7 3.5 0.00 0.00 0.00 51 1006.4
20260505225058 61 171 1.7 3.5 0.00 0.00 0.00 51 1006.3
20260505224558 61 171 2.6 3.5 0.00 0.00 0.00 51 1006.4
20260505224058 61 172 1.7 3.5 0.00 0.00 0.00 51 1006.3
20260505223558 59 172 1.7 1.7 0.00 0.00 0.00 52 1006.4
20260505223058 61 172 1.7 3.5 0.00 0.00 0.00 51 1006.4
20260505222558 61 172 1.7 3.5 0.00 0.00 0.00 51 1006.4
20260505222058 61 172 0.0 1.7 0.00 0.00 0.00 51 1006.6
20260505221558 61 172 1.7 1.7 0.00 0.00 0.00 50 1006.6
20260505221058 61 211 0.0 1.7 0.00 0.00 0.00 49 1006.4
20260505220558 61 204 0.9 3.5 0.00 0.00 0.00 49 1006.5
20260505220058 61 216 0.9 4.3 0.00 0.00 0.00 48 1006.5
20260505215558 63 221 1.7 3.5 0.00 0.00 0.00 47 1006.6
20260505215058 63 225 2.6 4.3 0.00 0.00 0.00 46 1006.6
20260505214558 63 215 1.7 3.5 0.00 0.00 0.00 45 1006.6
20260505214058 63 175 3.5 4.3 0.00 0.00 0.00 45 1006.7
20260505213558 63 149 3.5 3.5 0.00 0.00 0.00 45 1006.4
20260505212558 63 169 1.7 3.5 0.00 0.00 0.00 44 1006.4
20260505212058 63 142 0.0 3.5 0.00 0.00 0.00 44 1006.7
20260505211558 63 143 0.0 1.7 0.00 0.00 0.00 43 1006.7
20260505211058 63 142 2.6 3.5 0.00 0.00 0.00 43 1006.4
20260505210558 63 142 0.9 1.7 0.00 0.00 0.00 42 1006.5
20260505210058 63 142 0.0 3.5 0.00 0.00 0.00 42 1006.6
20260505205558 63 142 0.9 1.7 0.00 0.00 0.00 42 1006.6
20260505205058 63 142 0.9 1.7 0.00 0.00 0.00 42 1006.9
20260505204558 63 142 1.7 1.7 0.00 0.00 0.00 42 1006.6
20260505204058 63 142 0.9 1.7 0.00 0.00 0.00 41 1006.6
20260505203558 63 143 0.9 1.7 0.00 0.00 0.00 41 1006.6
20260505203058 64 143 0.0 1.7 0.00 0.00 0.00 40 1006.5
20260505202558 64 143 0.9 1.7 0.00 0.00 0.00 39 1006.4
20260505202058 64 143 0.0 0.0 0.00 0.00 0.00 39 1006.5
20260505201558 64 142 0.0 1.7 0.00 0.00 0.00 39 1006.5
20260505201058 64 161 2.6 3.5 0.00 0.00 0.00 39 1006.6
20260505200558 64 163 0.0 0.0 0.00 0.00 0.00 39 1006.5
20260505200058 64 163 0.0 0.0 0.00 0.00 0.00 39 1006.5
20260505195558 64 163 1.7 1.7 0.00 0.00 0.00 39 1006.5
20260505195058 64 163 0.9 1.7 0.00 0.00 0.00 40 1006.7
20260505194558 64 176 1.7 1.7 0.00 0.00 0.00 38 1006.3
20260505194058 64 176 0.0 3.5 0.00 0.00 0.00 37 1006.3
20260505193558 66 176 0.0 0.0 0.00 0.00 0.00 36 1006.3
20260505193058 66 176 0.9 4.3 0.00 0.00 0.00 36 1006.2
20260505192558 66 133 2.6 3.5 0.00 0.00 0.00 36 1006.4
20260505192058 66 133 0.9 3.5 0.00 0.00 0.00 35 1006.5
20260505191558 66 132 1.7 3.5 0.00 0.00 0.00 35 1006.2
20260505191058 66 133 0.9 1.7 0.00 0.00 0.00 34 1006.2
20260505190558 66 133 2.6 4.3 0.00 0.00 0.00 33 1006.2
20260505190058 68 149 1.7 3.5 0.00 0.00 0.00 33 1006.1
20260505185558 68 149 1.7 3.5 0.00 0.00 0.00 32 1006.0
20260505185058 68 149 0.9 4.3 0.00 0.00 0.00 31 1005.9
20260505184558 68 184 1.7 3.5 0.00 0.00 0.00 31 1005.9
20260505184058 68 166 1.7 3.5 0.00 0.00 0.00 30 1005.9
20260505183558 70 212 1.7 4.3 0.00 0.00 0.00 30 1005.9
20260505183058 70 213 3.5 3.5 0.00 0.00 0.00 29 1005.8
20260505182558 70 212 4.3 4.3 0.00 0.00 0.00 29 1005.8
20260505182058 70 214 1.7 3.5 0.00 0.00 0.00 29 1005.7
20260505181558 70 214 1.7 4.3 0.00 0.00 0.00 29 1005.7
20260505181058 72 214 4.3 6.1 0.00 0.00 0.00 28 1005.6
20260505180558 72 185 5.2 6.1 0.00 0.00 0.00 28 1005.5
20260505180058 72 192 3.5 7.8 0.00 0.00 0.00 27 1005.5
20260505175558 72 211 3.5 4.3 0.00 0.00 0.00 27 1005.6
20260505175058 72 211 4.3 7.8 0.00 0.00 0.00 26 1005.5
20260505174558 73 185 6.1 9.6 0.00 0.00 0.00 26 1005.4
20260505174058 73 205 7.0 9.6 0.00 0.00 0.00 26 1005.3
20260505173558 73 209 5.2 7.8 0.00 0.00 0.00 25 1005.4
20260505173058 73 208 7.8 9.6 0.00 0.00 0.00 25 1005.1
20260505172558 73 197 7.8 11.3 0.00 0.00 0.00 25 1005.2
20260505172058 75 201 9.6 19.1 0.00 0.00 0.00 24 1005.0
20260505171558 75 196 7.0 11.3 0.00 0.00 0.00 24 1005.0